Weather History for Luxor, Egypt

Change the Weather History Date:

Saturday, February 2, 2013

  Actual Average Record
Temperature  
Mean Temperature 59 °F -  
Max Temperature 71 °F 74 °F 84 °F (2014)
Min Temperature 47 °F 47 °F 39 °F (2008)
Degree Days  
Heating Degree Days 6    
Growing Degree Days 9 (Base 50)    
Moisture  
Dew Point 45 °F    
Average Humidity 59    
Maximum Humidity 82    
Minimum Humidity 30    
Precipitation  
Precipitation 0.00 in 0.00 in - ()
Sea Level Pressure  
Sea Level Pressure 30.18 in    
Wind  
Wind Speed 2 mph ()    
Max Wind Speed 5 mph    
Max Gust Speed -    
Visibility 4.4 miles    
Events      
Averages and records for this station are not official NWS values.
T = Trace of Precipitation, MM = Missing Value Source: Averaged Metar Reports

Daily Weather History Graph

Daily Weather History Graph

Search for Another Location

Airport:

Trip Planner

Search our weather history database for the weather conditions in past years. The results will help you decide how hot, cold, wet, or windy it might be!

Date:

Astronomy

Feb. 02, 2013 Rise Set
Actual Time 6:32 AM EET 5:33 PM EET
Civil Twilight 6:08 AM EET 5:57 PM EET
Nautical Twilight 5:40 AM EET 6:25 PM EET
Astronomical Twilight 5:13 AM EET 6:52 PM EET
Moon 11:37 PM EET (2/2) 10:13 AM EET (2/2)
Length of Visible Light 11h 49m
Length of Day
11h 01m
Waning Gibbous, 63% of the Moon is Illuminated
Feb 2
Waning Gibbous
Feb 3
Last Quarter
Feb 10
New
Feb 17
First Quarter
Feb 25
Full

Hourly Weather History & Observations

Time (EET) Temp. Dew Point Humidity Pressure Visibility Wind Dir Wind Speed Gust Speed Precip Events Conditions
12:00 AM 55.4 °F 46.4 °F 72% 30.09 in - WSW 4.6 mph - N/A   Clear
1:00 AM 55.4 °F 46.4 °F 72% 30.12 in - West 3.5 mph - N/A   Clear
2:00 AM 54 °F 47 °F 69% 30.14 in 6 mi WNW 2.3 mph - -   Scattered Clouds
2:00 AM 53.6 °F 46.4 °F 77% 30.12 in - WNW 2.3 mph - N/A   Clear
3:00 AM 55.4 °F 46.4 °F 72% 30.12 in - West 2.3 mph - N/A   Clear
4:00 AM 55.4 °F 44.6 °F 67% 30.12 in 3.7 mi NNW 2.3 mph - N/A   Unknown
5:00 AM 51.8 °F 42.8 °F 71% 30.15 in 3.7 mi Calm Calm - N/A   Unknown
6:00 AM 51.8 °F 44.6 °F 76% 30.15 in 3.7 mi West 2.3 mph - N/A   Unknown
7:00 AM 48.2 °F 42.8 °F 82% 30.15 in 3.7 mi Calm Calm - N/A   Unknown
8:00 AM 56 °F 45 °F 58% 30.21 in 4 mi NW 2.3 mph - -   Mist
8:00 AM 55.4 °F 44.6 °F 67% 30.18 in 3.7 mi NW 2.3 mph - N/A   Unknown
9:00 AM 59.0 °F 48.2 °F 67% 30.21 in 3.7 mi Calm Calm - N/A   Unknown
10:00 AM 62.6 °F 46.4 °F 55% 30.21 in 3.7 mi WNW 2.3 mph - N/A   Unknown
11:00 AM 64.4 °F 39.2 °F 40% 30.21 in 5.0 mi Calm Calm - N/A   Unknown
12:00 PM 66.2 °F 46.4 °F 49% 30.21 in - ESE 3.5 mph - N/A   Clear
1:00 PM 68.0 °F 48.2 °F 49% 30.18 in - Calm Calm - N/A   Clear
2:00 PM 69 °F 45 °F 30% 30.19 in 6 mi NNW 4.6 mph - -  
2:00 PM 69.8 °F 44.6 °F 40% 30.18 in - NNW 4.6 mph - N/A   Clear
3:00 PM 69.8 °F 44.6 °F 40% 30.18 in - North 2.3 mph - N/A   Clear
4:00 PM 69.8 °F 44.6 °F 40% 30.18 in - NNE 4.6 mph - N/A   Clear
5:00 PM 68.0 °F 44.6 °F 43% 30.21 in - NE 4.6 mph - N/A   Clear
6:00 PM 66.2 °F 46.4 °F 49% 30.18 in - Calm Calm - N/A   Clear
8:00 PM 58 °F 46 °F 56% 30.21 in 6 mi Calm Calm - -  
8:00 PM 59.0 °F 46.4 °F 63% 30.21 in - Calm Calm - N/A   Clear
9:00 PM 57.2 °F 46.4 °F 67% 30.21 in - Calm Calm - N/A   Clear
10:00 PM 57.2 °F 44.6 °F 63% 30.21 in - SSE 2.3 mph - N/A   Clear
11:00 PM 53.6 °F 44.6 °F 72% 30.21 in - Calm Calm - N/A   Clear